GACFB EGPC-EGPE

Flight info

Callsign GACFB
Flight time N/A
Altitude 4000
Route 5815N00332W 5804N00353W 5750N00408W/N0111F050
Aircraft C172/L-SDFG/C

Departure

Time 2026-04-23 19:44
Airport Wick John O'Groats Airport (EGPC)

Arrival

Time N/A
Airport Inverness Airport (EGPE)
Time Latitude Longitude Altitude Speed Heading
2026-04-23 19:43 58.31728 -3.39289 3999 ft 125 kts 228°
2026-04-23 19:44 58.29995 -3.42931 4000 ft 126 kts 228°
2026-04-23 19:44 58.29405 -3.44168 4000 ft 126 kts 228°
2026-04-23 19:44 58.28818 -3.45400 3999 ft 126 kts 228°
2026-04-23 19:44 58.28224 -3.46644 3999 ft 126 kts 228°
2026-04-23 19:45 58.27643 -3.47861 3999 ft 126 kts 228°
2026-04-23 19:45 58.27055 -3.49093 4000 ft 126 kts 228°
2026-04-23 19:45 58.26466 -3.50325 3999 ft 126 kts 228°
2026-04-23 19:45 58.25879 -3.51554 4000 ft 126 kts 228°
2026-04-23 19:46 58.25286 -3.52790 4000 ft 126 kts 227°
2026-04-23 19:46 58.24683 -3.53986 4000 ft 126 kts 226°
2026-04-23 19:46 58.24069 -3.55176 4000 ft 126 kts 226°
2026-04-23 19:46 58.23454 -3.56361 3999 ft 126 kts 226°
2026-04-23 19:47 58.22833 -3.57554 4000 ft 126 kts 226°
2026-04-23 19:47 58.22219 -3.58732 3999 ft 126 kts 226°
2026-04-23 19:47 58.21603 -3.59916 3999 ft 126 kts 226°
2026-04-23 19:47 58.20987 -3.61097 3999 ft 126 kts 226°
2026-04-23 19:48 58.20372 -3.62276 3999 ft 126 kts 226°
2026-04-23 19:48 58.19751 -3.63465 3999 ft 126 kts 226°
2026-04-23 19:48 58.19135 -3.64644 3999 ft 126 kts 226°
2026-04-23 19:48 58.18520 -3.65821 3999 ft 126 kts 225°
2026-04-23 19:49 58.17899 -3.67009 3999 ft 126 kts 225°
2026-04-23 19:49 58.17284 -3.68186 3999 ft 126 kts 225°
2026-04-23 19:49 58.16674 -3.69352 3999 ft 126 kts 225°
2026-04-23 19:49 58.16055 -3.70533 3999 ft 126 kts 225°
2026-04-23 19:50 58.15438 -3.71710 3999 ft 126 kts 225°
2026-04-23 19:50 58.14822 -3.72885 3999 ft 126 kts 225°
2026-04-23 19:50 58.14207 -3.74059 4057 ft 121 kts 225°
2026-04-23 19:50 58.13610 -3.75197 4095 ft 122 kts 225°
2026-04-23 19:51 58.13021 -3.76321 4174 ft 118 kts 225°
2026-04-23 19:51 58.12461 -3.77393 4344 ft 110 kts 225°
2026-04-23 19:51 58.11935 -3.78400 4514 ft 106 kts 225°
2026-04-23 19:52 58.10400 -3.81332 4985 ft 105 kts 225°
2026-04-23 19:52 58.09862 -3.82359 5002 ft 115 kts 225°
2026-04-23 19:52 58.09279 -3.83471 5002 ft 121 kts 225°
2026-04-23 19:53 58.08678 -3.84617 5001 ft 124 kts 225°
2026-04-23 19:53 58.08064 -3.85786 5000 ft 124 kts 225°
2026-04-23 19:53 58.07455 -3.86945 4999 ft 124 kts 225°
2026-04-23 19:53 58.06813 -3.88006 4996 ft 124 kts 208°
2026-04-23 19:54 58.05983 -3.88151 4996 ft 123 kts 163°
2026-04-23 19:54 58.05331 -3.87162 4996 ft 123 kts 120°
2026-04-23 19:54 58.05188 -3.85596 5000 ft 122 kts 87°
2026-04-23 19:54 58.05262 -3.83996 5000 ft 123 kts 83°
2026-04-23 19:55 58.05358 -3.82382 5000 ft 123 kts 83°
2026-04-23 19:55 58.05454 -3.80778 5000 ft 123 kts 83°
2026-04-23 19:55 58.05551 -3.79171 5000 ft 123 kts 83°
2026-04-23 19:55 58.05649 -3.77550 5000 ft 123 kts 83°
2026-04-23 19:56 58.05745 -3.75948 5000 ft 123 kts 83°
2026-04-23 19:56 58.05842 -3.74331 4999 ft 123 kts 83°
2026-04-23 19:56 58.05938 -3.72725 4999 ft 123 kts 83°
2026-04-23 19:56 58.05945 -3.71124 4993 ft 124 kts 106°
2026-04-23 19:57 58.05413 -3.69901 4994 ft 123 kts 150°
2026-04-23 19:57 58.04587 -3.69710 4994 ft 123 kts 194°
2026-04-23 19:57 58.03907 -3.70650 4997 ft 123 kts 233°
2026-04-23 19:57 58.03459 -3.72017 4999 ft 123 kts 240°
2026-04-23 19:58 58.03037 -3.73432 5000 ft 123 kts 240°
2026-04-23 19:58 58.02413 -3.74475 4996 ft 123 kts 199°
2026-04-23 19:58 58.01583 -3.74398 4996 ft 123 kts 155°
2026-04-23 19:58 58.01011 -3.73252 4996 ft 122 kts 111°
2026-04-23 19:59 58.00870 -3.71669 4994 ft 123 kts 107°
2026-04-23 19:59 58.00315 -3.70493 4995 ft 123 kts 153°
2026-04-23 19:59 57.99484 -3.70370 4995 ft 123 kts 197°
2026-04-23 19:59 57.98830 -3.71342 4998 ft 123 kts 234°
2026-04-23 20:00 57.98386 -3.72709 5000 ft 123 kts 240°
2026-04-23 20:00 57.97961 -3.74132 5000 ft 123 kts 240°
2026-04-23 20:00 57.97547 -3.75531 5000 ft 123 kts 240°
2026-04-23 20:00 57.97126 -3.76953 5000 ft 123 kts 240°
2026-04-23 20:01 57.96709 -3.78362 5000 ft 123 kts 240°
2026-04-23 20:01 57.96292 -3.79768 5000 ft 123 kts 240°
2026-04-23 20:01 57.95805 -3.81108 5000 ft 123 kts 229°
2026-04-23 20:01 57.95238 -3.82311 5000 ft 123 kts 227°
2026-04-23 20:02 57.94660 -3.83512 5000 ft 123 kts 227°
2026-04-23 20:02 57.94089 -3.84695 4999 ft 123 kts 227°
2026-04-23 20:02 57.93511 -3.85893 5000 ft 123 kts 227°
2026-04-23 20:02 57.92933 -3.87091 4999 ft 123 kts 227°
2026-04-23 20:03 57.92355 -3.88288 4999 ft 123 kts 227°
2026-04-23 20:03 57.91780 -3.89478 4999 ft 123 kts 227°
2026-04-23 20:03 57.91201 -3.90677 4999 ft 123 kts 227°
2026-04-23 20:03 57.90623 -3.91873 4999 ft 123 kts 227°
2026-04-23 20:04 57.90044 -3.93072 4999 ft 123 kts 227°
2026-04-23 20:04 57.89470 -3.94258 4999 ft 123 kts 227°
2026-04-23 20:04 57.88890 -3.95458 4999 ft 123 kts 227°
2026-04-23 20:04 57.88318 -3.96640 4999 ft 123 kts 227°
2026-04-23 20:05 57.87736 -3.97843 4999 ft 123 kts 227°
2026-04-23 20:05 57.87159 -3.99034 4999 ft 123 kts 227°
2026-04-23 20:05 57.86585 -4.00221 4999 ft 123 kts 227°
2026-04-23 20:05 57.86005 -4.01417 4999 ft 123 kts 227°
2026-04-23 20:06 57.85426 -4.02613 4999 ft 123 kts 227°
2026-04-23 20:06 57.84849 -4.03805 4999 ft 123 kts 227°
2026-04-23 20:06 57.84274 -4.04990 4999 ft 123 kts 227°
2026-04-23 20:06 57.83696 -4.06184 4999 ft 123 kts 227°
2026-04-23 20:07 57.83115 -4.07382 4998 ft 123 kts 227°
2026-04-23 20:07 57.82526 -4.08598 4833 ft 128 kts 228°
2026-04-23 20:07 57.81922 -4.09848 4656 ft 128 kts 228°
2026-04-23 20:07 57.81324 -4.11086 4481 ft 127 kts 228°
2026-04-23 20:08 57.80737 -4.12302 4307 ft 127 kts 228°
2026-04-23 20:08 57.80143 -4.13532 4131 ft 126 kts 228°
2026-04-23 20:08 57.79563 -4.14732 4016 ft 124 kts 228°
2026-04-23 20:08 57.78979 -4.15937 4001 ft 124 kts 227°
2026-04-23 20:09 57.78400 -4.17128 3999 ft 123 kts 227°
2026-04-23 20:09 57.77828 -4.18306 3999 ft 123 kts 227°
2026-04-23 20:09 57.77250 -4.19495 3999 ft 122 kts 227°
2026-04-23 20:09 57.76683 -4.20661 3999 ft 122 kts 227°
2026-04-23 20:10 57.76105 -4.21851 3999 ft 122 kts 227°
2026-04-23 20:10 57.75534 -4.23025 3999 ft 122 kts 227°
2026-04-23 20:10 57.74961 -4.24202 3999 ft 122 kts 227°
2026-04-23 20:10 57.74382 -4.25392 3921 ft 125 kts 228°
2026-04-23 20:11 57.73794 -4.26602 3902 ft 124 kts 227°
2026-04-23 20:11 57.72680 -4.28890 3899 ft 123 kts 227°
2026-04-23 20:11 57.71913 -4.30464 3899 ft 123 kts 227°
2026-04-23 20:12 57.71529 -4.31251 3899 ft 123 kts 227°
2026-04-23 20:12 57.70956 -4.32428 3899 ft 123 kts 227°
2026-04-23 20:12 57.70377 -4.33613 3899 ft 122 kts 227°
2026-04-23 20:12 57.69809 -4.34780 3899 ft 122 kts 228°
2026-04-23 20:13 57.69231 -4.35962 3899 ft 122 kts 228°
2026-04-23 20:13 57.68654 -4.37145 3899 ft 122 kts 228°
2026-04-23 20:13 57.68080 -4.38322 3899 ft 122 kts 228°
2026-04-23 20:13 57.67507 -4.39495 3899 ft 122 kts 228°
2026-04-23 20:14 57.66934 -4.40668 3899 ft 122 kts 228°
2026-04-23 20:14 57.66361 -4.41841 3899 ft 122 kts 228°
2026-04-23 20:14 57.65781 -4.43027 3899 ft 122 kts 228°
2026-04-23 20:14 57.65208 -4.44199 3899 ft 122 kts 228°
2026-04-23 20:15 57.64635 -4.45371 3900 ft 122 kts 227°
2026-04-23 20:15 57.64003 -4.46443 3885 ft 124 kts 212°
2026-04-23 20:15 57.63237 -4.47209 3822 ft 127 kts 196°
2026-04-23 20:15 57.62349 -4.47377 3783 ft 125 kts 190°
2026-04-23 20:16 57.61516 -4.47620 3844 ft 120 kts 186°
2026-04-23 20:16 57.60679 -4.47778 3809 ft 124 kts 186°
2026-04-23 20:16 57.59826 -4.47931 3824 ft 122 kts 186°
2026-04-23 20:16 57.58982 -4.48082 3824 ft 122 kts 186°
2026-04-23 20:17 57.58126 -4.48235 3819 ft 123 kts 186°
2026-04-23 20:17 57.57288 -4.48385 3826 ft 122 kts 186°
2026-04-23 20:17 57.56445 -4.48159 3703 ft 127 kts 152°
2026-04-23 20:17 57.55880 -4.46943 3359 ft 128 kts 111°
2026-04-23 20:18 57.55500 -4.45498 3023 ft 120 kts 122°
2026-04-23 20:18 57.54979 -4.44304 2535 ft 126 kts 137°
2026-04-23 20:18 57.54276 -4.43373 2120 ft 122 kts 153°
2026-04-23 20:18 57.53581 -4.42761 2236 ft 105 kts 154°
2026-04-23 20:19 57.52965 -4.42210 2401 ft 94 kts 154°